Tracking 19800 objects as of 24-Jul-2019
HD Live streaming from Space Station
objects crossing your sky now

CZ-2C DEB

Track CZ-2C DEB now!
10-day predictions


NORAD ID: 37768
Int'l Code: 2011-039D
Perigee: 691.9 km
Apogee: 907.9 km
Inclination: 98.2 °
Period: 100.7 minutes
Semi major axis: 7170 km
RCS: 0.0872 m2 (small)
Launch date: July 29, 2011
Source: People's Republic of China (PRC)
Launch site: Jiuquan Satellite Launch Center, China (JSC)

Note: This is SATELLITE DEBRIS
aabbcc
Your satellite tracking list
Your tracking list is empty




NASA's NSSDC Master Catalog

Two Line Element Set (TLE):
1 37768U 11039D   19204.69595483  .00000270  00000-0  10796-3 0  9995
2 37768  98.1992 232.8040 0150627 209.1880 287.1727 14.29688810415998
Source of the keplerian elements: AFSPC